GW0280 Weather Reports


Display with metric or nautical units.
time (UTC)temp
F
wind
direction
speed
MPH
gust
MPH
rain 1hr
in
rain 24hr
in
rain mn
in
humidity
%
barometer
mb
20260507020054 63 0 0.0 1.0 0.00 0.04 0.04 90 1009.2
20260507014551 63 0 0.0 1.0 0.00 0.04 0.04 91 1009.7
20260507013042 63 0 0.0 1.0 0.00 0.04 0.04 90 1009.8
20260507011544 63 0 0.0 0.0 0.00 0.04 0.04 88 1009.5
20260507010046 64 0 0.0 1.0 0.00 0.04 0.04 86 1009.3
20260507004543 65 226 0.0 0.0 0.00 0.04 0.04 85 1009.4
20260507003043 65 226 0.0 2.0 0.00 0.04 0.04 85 1009.4
20260507001546 66 226 1.0 4.0 0.00 0.04 0.04 84 1009.4
20260507000045 66 169 2.0 7.0 0.00 0.04 0.04 83 1009.0
20260506234553 67 0 2.0 7.0 0.00 0.04 0.04 82 1008.9
20260506233049 67 161 2.0 10.0 0.00 0.04 0.04 82 1009.0
20260506231552 68 195 3.0 9.0 0.00 0.04 0.04 81 1009.0
20260506230040 68 228 4.0 10.0 0.00 0.04 0.04 81 1009.0
20260506224541 68 188 4.0 9.0 0.00 0.04 0.04 80 1008.9
20260506223044 69 169 3.0 9.0 0.00 0.04 0.04 80 1009.0
20260506221545 68 203 6.0 17.0 0.00 0.04 0.04 80 1008.8
20260506220043 69 188 5.0 15.0 0.00 0.04 0.04 80 1009.0
20260506214545 69 221 7.0 19.0 0.00 0.04 0.04 79 1008.8
20260506213040 69 190 7.0 16.0 0.00 0.04 0.04 79 1008.7
20260506211550 69 210 8.0 18.0 0.00 0.04 0.04 78 1008.6
20260506210045 69 127 9.0 28.0 0.00 0.04 0.04 79 1008.3
20260506204544 69 208 6.0 17.0 0.00 0.04 0.04 79 1008.3
20260506203042 69 188 8.0 21.0 0.00 0.04 0.04 79 1008.2
20260506201541 68 186 9.0 21.0 0.00 0.04 0.04 79 1008.0
20260506200046 68 219 8.0 19.0 0.00 0.04 0.04 79 1008.2
20260506194544 68 194 8.0 21.0 0.00 0.04 0.04 79 1008.5
20260506193044 68 137 9.0 20.0 0.00 0.04 0.04 79 1008.7
20260506191542 68 213 8.0 19.0 0.00 0.04 0.04 79 1008.5
20260506190042 68 211 10.0 19.0 0.00 0.04 0.04 78 1008.9
20260506184547 68 240 9.0 23.0 0.00 0.04 0.04 78 1008.9
20260506183048 68 185 12.0 24.0 0.00 0.04 0.04 79 1009.3
20260506181543 67 213 9.0 26.0 0.00 0.04 0.04 82 1009.4
20260506180046 66 211 8.0 26.0 0.00 0.04 0.04 82 1009.4
20260506174542 66 206 9.0 17.0 0.00 0.04 0.04 82 1009.7
20260506173113 66 161 8.0 20.0 0.00 0.04 0.04 84 1009.5
20260506171539 65 185 7.0 22.0 0.00 0.04 0.04 86 1009.5
20260506170046 65 214 7.0 17.0 0.01 0.04 0.04 88 1009.4
20260506164548 63 222 8.0 17.0 0.01 0.04 0.04 88 1009.6
20260506163043 64 188 5.0 14.0 0.03 0.04 0.04 89 1010.0
20260506161542 63 182 2.0 10.0 0.04 0.04 0.04 90 1010.1
20260506160049 63 200 3.0 14.0 0.03 0.03 0.03 89 1010.3
20260506154545 63 182 3.0 16.0 0.03 0.03 0.03 88 1010.9
20260506153047 64 207 7.0 14.0 0.01 0.01 0.01 85 1011.2
20260506151545 65 123 6.0 16.0 0.00 0.00 0.00 81 1011.1
20260506150044 65 205 5.0 15.0 0.00 0.00 0.00 79 1011.0
20260506144544 66 147 8.0 16.0 0.00 0.00 0.00 75 1011.1
20260506143037 68 182 7.0 22.0 0.00 0.00 0.00 70 1011.1
20260506141543 69 184 10.0 21.0 0.00 0.00 0.00 68 1011.1
20260506140043 68 171 8.0 22.0 0.00 0.00 0.00 67 1011.0
20260506134542 68 168 7.0 19.0 0.00 0.00 0.00 68 1010.9
20260506133041 68 215 7.0 20.0 0.00 0.00 0.00 69 1010.7
20260506131548 67 163 5.0 20.0 0.00 0.00 0.00 69 1010.8
20260506130052 67 183 6.0 16.0 0.00 0.00 0.00 69 1010.7
20260506124552 67 174 6.0 18.0 0.00 0.00 0.00 69 1010.9
20260506123043 67 208 6.0 13.0 0.00 0.00 0.00 71 1011.0
20260506121542 67 207 6.0 16.0 0.00 0.00 0.00 71 1011.1
20260506120040 66 183 8.0 19.0 0.00 0.00 0.00 72 1011.2
20260506114546 65 193 4.0 16.0 0.00 0.00 0.00 74 1011.0
20260506113052 64 156 5.0 12.0 0.00 0.00 0.00 75 1010.8
20260506111544 64 215 6.0 16.0 0.00 0.00 0.00 75 1010.8
20260506110051 64 203 4.0 10.0 0.00 0.00 0.00 77 1010.7
20260506104548 63 171 6.0 15.0 0.00 0.00 0.00 78 1010.8
20260506103047 63 95 3.0 13.0 0.00 0.00 0.00 79 1010.7
20260506101555 63 237 4.0 12.0 0.00 0.00 0.00 79 1011.0
20260506100101 63 213 5.0 16.0 0.00 0.00 0.00 79 1010.9
20260506094543 63 207 6.0 14.0 0.00 0.00 0.00 79 1010.8
20260506093046 63 164 6.0 18.0 0.00 0.00 0.00 78 1010.9
20260506091540 64 170 5.0 15.0 0.00 0.00 0.00 78 1010.7
20260506090045 64 207 4.0 11.0 0.00 0.00 0.00 78 1010.7
20260506084605 64 195 5.0 18.0 0.00 0.00 0.00 78 1010.7
20260506083044 64 218 5.0 14.0 0.00 0.00 0.00 78 1010.5
20260506081550 64 221 5.0 15.0 0.00 0.00 0.00 78 1010.8
20260506073048 65 165 5.0 12.0 0.00 0.00 0.00 77 1010.9
20260506071545 65 179 6.0 13.0 0.00 0.00 0.00 77 1011.1
20260506061539 66 200 5.0 17.0 0.00 0.00 0.00 77 1011.0
20260506044618 68 197 5.0 15.0 0.00 0.00 0.00 75 1011.3
20260506043046 68 232 6.0 13.0 0.00 0.00 0.00 75 1011.5
20260506041553 68 159 5.0 15.0 0.00 0.00 0.00 75 1011.7
20260506040043 68 175 4.0 11.0 0.00 0.00 0.00 75 1011.5
20260506034605 68 210 4.0 11.0 0.00 0.00 0.00 74 1011.2
20260506033039 68 190 4.0 11.0 0.00 0.00 0.00 74 1011.2
20260506031540 68 205 2.0 7.0 0.00 0.00 0.00 72 1011.3
20260506030045 68 163 3.0 10.0 0.00 0.00 0.00 70 1011.5
20260506024544 69 129 5.0 18.0 0.00 0.00 0.00 69 1011.6
20260506023101 69 182 5.0 14.0 0.00 0.00 0.00 69 1011.7
20260506021539 69 188 6.0 14.0 0.00 0.00 0.00 68 1011.8